When you browse on this site, cookies collect data to enhance your experience and personalize the content and advertising you see.
Visit our Privacy Policy to learn more. By continuing to use the site, you agree to this use of cookies and data.
  • In Germany
  • List of Countries
  • For 7 days
  • Water Temperature
  • Satellite Maps
  • Weather Map
  • Weather Widgets
  • user-avatar
    Login

    Hourly Weather Mlynisko

    Today, 23 July, Tuesday

    Time Temperature Precipitation Wind Pressure Humidity
    00:00 +16°C° 0 mm 1 mps 755 mmHg 82%
    01:00 +15°C° 0 mm 1 mps 755 mmHg 84%
    02:00 +15°C° 0 mm 1 mps 754 mmHg 84%
    03:00 +15°C° 0 mm 1 mps 754 mmHg 84%
    04:00 +14°C° 0 mm 1 mps 754 mmHg 83%
    05:00 +16°C° 0 mm 1 mps 754 mmHg 80%
    06:00 +17°C° 0 mm 2 mps 754 mmHg 76%
    07:00 +18°C° 0 mm 3 mps 754 mmHg 73%
    08:00 +18°C° 0 mm 3 mps 754 mmHg 71%
    09:00 +19°C° 0 mm 3 mps 754 mmHg 69%
    10:00 +19°C° 0 mm 4 mps 754 mmHg 66%
    11:00 +19°C° 0 mm 4 mps 754 mmHg 66%
    12:00 +20°C° 0 mm 4 mps 754 mmHg 66%
    13:00 +20°C° 0 mm 4 mps 753 mmHg 66%
    14:00 +21°C° 0 mm 4 mps 753 mmHg 67%
    15:00 +21°C° 0 mm 4 mps 753 mmHg 67%
    16:00 +21°C° 0 mm 4 mps 753 mmHg 68%
    17:00 +20°C° 0 mm 4 mps 753 mmHg 73%
    18:00 +19°C° 0 mm 3 mps 753 mmHg 78%
    19:00 +18°C° 0 mm 3 mps 753 mmHg 83%
    20:00 +17°C° 0 mm 3 mps 753 mmHg 87%
    21:00 +16°C° 0 mm 3 mps 753 mmHg 91%
    22:00 +15°C° 0 mm 2 mps 754 mmHg 94%
    23:00 +15°C° 0 mm 2 mps 753 mmHg 95%

    Tomorrow, 24 July, Wednesday

    Time Temperature Precipitation Wind Pressure Humidity
    00:00 +15°C° 0 mm 2 mps 753 mmHg 95%
    01:00 +14°C° 0 mm 1 mps 753 mmHg 95%
    02:00 +14°C° 0 mm 1 mps 753 mmHg 95%
    03:00 +14°C° 0 mm 1 mps 753 mmHg 95%
    04:00 +14°C° 0 mm 1 mps 753 mmHg 95%
    05:00 +15°C° 0 mm 1 mps 753 mmHg 89%
    06:00 +17°C° 0 mm 2 mps 753 mmHg 83%
    07:00 +19°C° 0 mm 2 mps 753 mmHg 76%
    08:00 +20°C° 0 mm 2 mps 754 mmHg 70%
    09:00 +23°C° 0 mm 2 mps 754 mmHg 63%
    10:00 +24°C° 0 mm 2 mps 754 mmHg 57%
    11:00 +25°C° 0 mm 2 mps 754 mmHg 55%
    12:00 +26°C° 0 mm 2 mps 753 mmHg 52%
    13:00 +26°C° 0 mm 3 mps 753 mmHg 49%
    14:00 +26°C° 0 mm 3 mps 753 mmHg 50%
    15:00 +27°C° 0 mm 3 mps 753 mmHg 51%
    16:00 +27°C° 0 mm 3 mps 753 mmHg 52%
    17:00 +25°C° 0 mm 2 mps 753 mmHg 58%
    18:00 +24°C° 0 mm 2 mps 753 mmHg 65%
    19:00 +23°C° 0 mm 1 mps 753 mmHg 71%
    20:00 +21°C° 0 mm 1 mps 753 mmHg 76%
    21:00 +20°C° 0 mm 1 mps 754 mmHg 80%
    22:00 +19°C° 0 mm 1 mps 754 mmHg 85%
    23:00 +19°C° 0 mm 1 mps 754 mmHg 87%

    Day after tomorrow, 25 July, Thursday

    Time Temperature Precipitation Wind Pressure Humidity
    00:00 +19°C° 0 mm 1 mps 754 mmHg 89%
    01:00 +18°C° 0 mm 1 mps 754 mmHg 90%
    02:00 +18°C° 0 mm 1 mps 754 mmHg 91%
    03:00 +18°C° 0 mm 1 mps 754 mmHg 92%
    04:00 +16°C° 0 mm 1 mps 754 mmHg 93%
    05:00 +19°C° 0 mm 1 mps 754 mmHg 88%
    06:00 +21°C° 0 mm 1 mps 754 mmHg 82%
    07:00 +22°C° 0 mm 1 mps 754 mmHg 76%
    08:00 +24°C° 0.1 mm 2 mps 754 mmHg 70%
    09:00 +25°C° 0.1 mm 2 mps 754 mmHg 64%
    10:00 +26°C° 0.1 mm 2 mps 754 mmHg 58%
    11:00 +27°C° 0.1 mm 2 mps 754 mmHg 55%
    12:00 +27°C° 0.1 mm 2 mps 753 mmHg 52%
    13:00 +28°C° 0.1 mm 3 mps 753 mmHg 49%
    14:00 +28°C° 0 mm 3 mps 753 mmHg 49%
    15:00 +28°C° 0 mm 4 mps 753 mmHg 50%
    16:00 +27°C° 0 mm 4 mps 752 mmHg 51%
    17:00 +26°C° 0 mm 4 mps 752 mmHg 60%
    18:00 +24°C° 0 mm 3 mps 752 mmHg 69%
    19:00 +22°C° 0 mm 3 mps 752 mmHg 77%
    20:00 +20°C° 0 mm 3 mps 752 mmHg 81%
    21:00 +19°C° 0 mm 3 mps 753 mmHg 84%
    22:00 +18°C° 0 mm 3 mps 753 mmHg 88%
    23:00 +17°C° 0 mm 3 mps 753 mmHg 90%

    26 July, Friday

    Time Temperature Precipitation Wind Pressure Humidity
    00:00 +16°C° 0 mm 3 mps 752 mmHg 92%
    01:00 +16°C° 0 mm 3 mps 752 mmHg 94%
    02:00 +16°C° 0 mm 3 mps 752 mmHg 95%
    03:00 +14°C° 0 mm 3 mps 752 mmHg 95%
    04:00 +14°C° 0 mm 3 mps 752 mmHg 95%
    05:00 +17°C° 0 mm 3 mps 752 mmHg 89%
    06:00 +18°C° 0 mm 4 mps 752 mmHg 84%
    07:00 +19°C° 0 mm 4 mps 752 mmHg 78%
    08:00 +20°C° 0.1 mm 4 mps 752 mmHg 76%
    09:00 +20°C° 0.1 mm 5 mps 752 mmHg 73%
    10:00 +21°C° 0.1 mm 5 mps 752 mmHg 70%
    11:00 +22°C° 0 mm 5 mps 752 mmHg 68%
    12:00 +22°C° 0 mm 5 mps 752 mmHg 66%
    13:00 +23°C° 0 mm 5 mps 752 mmHg 64%
    14:00 +23°C° 0.1 mm 5 mps 752 mmHg 65%
    15:00 +23°C° 0.1 mm 5 mps 751 mmHg 67%
    16:00 +23°C° 0.1 mm 5 mps 751 mmHg 69%
    17:00 +22°C° 0 mm 4 mps 751 mmHg 74%
    18:00 +21°C° 0 mm 4 mps 751 mmHg 78%
    19:00 +20°C° 0 mm 3 mps 752 mmHg 83%
    20:00 +19°C° 0 mm 3 mps 752 mmHg 87%
    21:00 +18°C° 0 mm 3 mps 752 mmHg 90%
    22:00 +17°C° 0 mm 3 mps 752 mmHg 94%
    23:00 +18°C° 0 mm 3 mps 752 mmHg 94%

    27 July, Saturday

    Time Temperature Precipitation Wind Pressure Humidity
    00:00 +18°C° 0 mm 3 mps 752 mmHg 94%
    01:00 +18°C° 0 mm 3 mps 752 mmHg 94%
    02:00 +17°C° 0 mm 3 mps 752 mmHg 95%
    03:00 +17°C° 0 mm 3 mps 752 mmHg 96%
    04:00 +17°C° 0 mm 3 mps 752 mmHg 96%
    05:00 +19°C° 0 mm 3 mps 752 mmHg 91%
    06:00 +20°C° 0 mm 4 mps 752 mmHg 86%
    07:00 +21°C° 0 mm 4 mps 752 mmHg 80%
    08:00 +23°C° 0 mm 4 mps 752 mmHg 73%
    09:00 +26°C° 0 mm 4 mps 752 mmHg 66%
    10:00 +27°C° 0 mm 5 mps 752 mmHg 59%
    11:00 +28°C° 0 mm 5 mps 752 mmHg 57%
    12:00 +29°C° 0 mm 5 mps 752 mmHg 55%
    13:00 +29°C° 0 mm 5 mps 752 mmHg 52%
    14:00 +29°C° 0 mm 5 mps 752 mmHg 52%
    15:00 +29°C° 0 mm 5 mps 751 mmHg 52%
    16:00 +29°C° 0 mm 5 mps 751 mmHg 51%
    17:00 +28°C° 0 mm 4 mps 751 mmHg 58%
    18:00 +27°C° 0 mm 3 mps 751 mmHg 65%
    19:00 +25°C° 0 mm 3 mps 751 mmHg 71%
    20:00 +24°C° 0 mm 2 mps 752 mmHg 76%
    21:00 +23°C° 0 mm 2 mps 752 mmHg 82%
    22:00 +21°C° 0 mm 2 mps 752 mmHg 87%
    23:00 +20°C° 0 mm 2 mps 752 mmHg 88%

    28 July, Sunday

    Time Temperature Precipitation Wind Pressure Humidity
    00:00 +20°C° 0 mm 2 mps 752 mmHg 90%
    01:00 +19°C° 0 mm 2 mps 752 mmHg 92%
    02:00 +19°C° 0 mm 2 mps 752 mmHg 92%
    03:00 +19°C° 0 mm 2 mps 752 mmHg 93%
    04:00 +19°C° 0 mm 2 mps 752 mmHg 94%
    05:00 +20°C° 0 mm 2 mps 752 mmHg 87%
    06:00 +23°C° 0 mm 2 mps 752 mmHg 80%
    07:00 +24°C° 0 mm 2 mps 752 mmHg 73%
    08:00 +26°C° 0 mm 3 mps 752 mmHg 66%
    09:00 +28°C° 0 mm 3 mps 752 mmHg 60%
    10:00 +29°C° 0 mm 3 mps 752 mmHg 54%
    11:00 +30°C° 0 mm 3 mps 752 mmHg 53%
    12:00 +30°C° 0 mm 3 mps 752 mmHg 52%
    13:00 +30°C° 0 mm 4 mps 752 mmHg 51%
    14:00 +30°C° 0 mm 3 mps 752 mmHg 50%
    15:00 +30°C° 0 mm 3 mps 752 mmHg 49%
    16:00 +30°C° 0 mm 3 mps 751 mmHg 49%
    17:00 +29°C° 0 mm 3 mps 751 mmHg 55%
    18:00 +27°C° 0 mm 2 mps 751 mmHg 62%
    19:00 +26°C° 0 mm 2 mps 751 mmHg 68%
    20:00 +25°C° 0 mm 2 mps 752 mmHg 72%
    21:00 +24°C° 0 mm 2 mps 752 mmHg 76%
    22:00 +23°C° 0 mm 2 mps 752 mmHg 79%
    23:00 +21°C° 0 mm 2 mps 752 mmHg 82%
    Show more